Time,TemperatureF,DewpointF,PressureIn,WindDirection,WindDirectionDegrees,WindSpeedMPH,WindSpeedGustMPH,Humidity,HourlyPrecipIn,Conditions,Clouds,dailyrainin,SoftwareType,DateUTC
2013-03-10 00:00:00,47.3,22.8,29.12,ESE,112,2.0,2.7,38,0.00,,,0.00,WUHU216WMR100,2013-03-10 05:00:00,
2013-03-10 00:05:00,47.3,22.8,29.12,SE,135,1.6,2.0,38,0.00,,,0.00,WUHU216WMR100,2013-03-10 05:05:00,
2013-03-10 00:10:00,47.3,22.8,29.12,SSE,157,2.2,2.9,38,0.00,,,0.00,WUHU216WMR100,2013-03-10 05:10:00,
2013-03-10 00:15:00,47.3,22.8,29.12,ESE,112,2.2,2.9,38,0.00,,,0.00,WUHU216WMR100,2013-03-10 05:15:00,
2013-03-10 00:20:00,47.5,22.9,29.12,SE,135,2.2,2.5,38,0.00,,,0.00,WUHU216WMR100,2013-03-10 05:20:00,
2013-03-10 00:25:00,47.3,22.8,29.12,SSE,157,0.0,2.5,38,0.00,,,0.00,WUHU216WMR100,2013-03-10 05:25:00,
2013-03-10 00:30:00,47.3,22.8,29.12,SSE,157,2.2,2.5,38,0.00,,,0.00,WUHU216WMR100,2013-03-10 05:30:00,
2013-03-10 00:35:00,47.3,22.8,29.12,ESE,112,2.5,2.5,38,0.00,,,0.00,WUHU216WMR100,2013-03-10 05:35:00,
2013-03-10 00:40:00,47.3,22.8,29.09,SE,135,0.0,2.5,38,0.00,,,0.00,WUHU216WMR100,2013-03-10 05:40:00,
2013-03-10 00:45:00,47.3,22.8,29.09,ESE,112,0.0,2.5,38,0.00,,,0.00,WUHU216WMR100,2013-03-10 05:45:00,
2013-03-10 00:50:00,47.3,22.8,29.09,ESE,112,1.3,2.2,38,0.00,,,0.00,WUHU216WMR100,2013-03-10 05:50:00,
2013-03-10 00:55:00,47.3,22.8,29.09,SSE,157,1.6,2.2,38,0.00,,,0.00,WUHU216WMR100,2013-03-10 05:55:00,
2013-03-10 01:00:00,47.3,22.8,29.09,SSE,157,2.0,2.5,38,0.00,,,0.00,WUHU216WMR100,2013-03-10 06:00:00,
2013-03-10 01:05:00,47.5,22.9,29.09,SSE,157,2.9,4.3,38,0.00,,,0.00,WUHU216WMR100,2013-03-10 06:05:00,
2013-03-10 01:10:00,47.7,23.1,29.09,SSW,202,3.1,4.3,38,0.00,,,0.00,WUHU216WMR100,2013-03-10 06:10:00,
2013-03-10 01:15:00,47.7,23.1,29.09,SSE,157,1.1,3.8,38,0.00,,,0.00,WUHU216WMR100,2013-03-10 06:15:00,
2013-03-10 01:20:00,47.8,23.2,29.09,ENE,67,2.2,3.1,38,0.00,,,0.00,WUHU216WMR100,2013-03-10 06:20:00,
2013-03-10 01:25:00,48.0,22.7,29.09,SSW,202,2.9,3.1,37,0.00,,,0.00,WUHU216WMR100,2013-03-10 06:25:00,
2013-03-10 01:30:00,48.2,22.9,29.09,South,180,3.6,3.6,37,0.00,,,0.00,WUHU216WMR100,2013-03-10 06:30:00,
2013-03-10 01:35:00,48.2,22.9,29.09,South,180,2.5,3.6,37,0.00,,,0.00,WUHU216WMR100,2013-03-10 06:35:00,
2013-03-10 01:40:00,48.2,22.9,29.09,SSE,157,2.7,3.6,37,0.00,,,0.00,WUHU216WMR100,2013-03-10 06:40:00,
2013-03-10 01:45:00,48.2,22.9,29.09,SSE,157,2.7,3.8,37,0.00,,,0.00,WUHU216WMR100,2013-03-10 06:45:00,
2013-03-10 01:50:00,48.2,22.9,29.09,SSE,157,2.5,3.8,37,0.00,,,0.00,WUHU216WMR100,2013-03-10 06:50:00,
2013-03-10 01:55:00,48.0,22.7,29.09,SE,135,0.9,2.7,37,0.00,,,0.00,WUHU216WMR100,2013-03-10 06:55:00,
2013-03-10 03:00:00,48.0,22.7,29.09,ESE,112,1.3,2.5,37,0.00,,,0.00,WUHU216WMR100,2013-03-10 07:00:00,
2013-03-10 03:05:00,47.8,22.6,29.09,ESE,112,1.1,2.5,37,0.00,,,0.00,WUHU216WMR100,2013-03-10 07:05:00,
2013-03-10 03:10:00,47.7,22.5,29.09,ESE,112,2.0,2.5,37,0.00,,,0.00,WUHU216WMR100,2013-03-10 07:10:00,
2013-03-10 03:15:00,47.7,22.5,29.09,ESE,112,1.1,2.2,37,0.00,,,0.00,WUHU216WMR100,2013-03-10 07:15:00,
2013-03-10 03:20:00,47.5,22.3,29.09,East,90,1.3,2.5,37,0.00,,,0.00,WUHU216WMR100,2013-03-10 07:20:00,
2013-03-10 03:25:00,47.5,22.3,29.09,ESE,112,2.2,2.9,37,0.00,,,0.00,WUHU216WMR100,2013-03-10 07:25:00,
2013-03-10 03:30:00,47.3,22.1,29.09,ESE,112,1.3,2.9,37,0.00,,,0.00,WUHU216WMR100,2013-03-10 07:30:00,
2013-03-10 03:35:00,47.3,22.1,29.09,ESE,112,0.0,2.7,37,0.00,,,0.00,WUHU216WMR100,2013-03-10 07:35:00,
2013-03-10 03:40:00,47.3,22.1,29.06,ESE,112,2.0,2.7,37,0.00,,,0.00,WUHU216WMR100,2013-03-10 07:40:00,
2013-03-10 03:45:00,47.5,22.3,29.06,ESE,112,1.1,2.7,37,0.00,,,0.00,WUHU216WMR100,2013-03-10 07:45:00,
2013-03-10 03:50:00,47.5,22.9,29.06,ESE,112,1.3,2.5,38,0.00,,,0.00,WUHU216WMR100,2013-03-10 07:50:00,
2013-03-10 03:55:00,47.5,22.3,29.06,ESE,112,2.5,3.6,37,0.00,,,0.00,WUHU216WMR100,2013-03-10 07:55:00,
2013-03-10 04:00:00,47.5,22.3,29.06,ESE,112,1.6,3.8,37,0.00,,,0.00,WUHU216WMR100,2013-03-10 08:00:00,
2013-03-10 04:05:00,47.5,22.3,29.06,ESE,112,2.5,3.8,37,0.00,,,0.00,WUHU216WMR100,2013-03-10 08:05:00,
2013-03-10 04:10:00,47.7,22.5,29.06,ESE,112,1.3,5.6,37,0.00,,,0.00,WUHU216WMR100,2013-03-10 08:10:00,
2013-03-10 04:15:00,47.8,22.6,29.06,SSE,157,2.0,5.6,37,0.00,,,0.00,WUHU216WMR100,2013-03-10 08:15:00,
2013-03-10 04:20:00,47.8,22.6,29.06,SSE,157,2.7,2.9,37,0.00,,,0.00,WUHU216WMR100,2013-03-10 08:20:00,
2013-03-10 04:25:00,48.0,22.7,29.06,ESE,112,2.2,3.6,37,0.00,,,0.00,WUHU216WMR100,2013-03-10 08:25:00,
2013-03-10 04:31:00,48.2,22.9,29.06,SE,135,3.6,3.6,37,0.00,,,0.00,WUHU216WMR100,2013-03-10 08:31:00,
2013-03-10 04:36:00,48.2,22.9,29.06,SSE,157,2.5,3.6,37,0.00,,,0.00,WUHU216WMR100,2013-03-10 08:36:00,
2013-03-10 04:41:00,48.2,22.9,29.06,SSE,157,2.9,3.6,37,0.00,,,0.00,WUHU216WMR100,2013-03-10 08:41:00,
2013-03-10 04:46:00,48.2,22.9,29.06,SSE,157,2.5,3.6,37,0.00,,,0.00,WUHU216WMR100,2013-03-10 08:46:00,
2013-03-10 04:51:00,48.2,22.9,29.06,ESE,112,2.2,3.4,37,0.00,,,0.00,WUHU216WMR100,2013-03-10 08:51:00,
2013-03-10 04:56:00,48.2,22.9,29.06,SSE,157,2.2,3.4,37,0.00,,,0.00,WUHU216WMR100,2013-03-10 08:56:00,
2013-03-10 05:01:00,48.2,22.9,29.06,SSE,157,2.5,3.1,37,0.00,,,0.00,WUHU216WMR100,2013-03-10 09:01:00,
2013-03-10 05:06:00,48.2,22.9,29.06,SSE,157,1.6,3.6,37,0.00,,,0.00,WUHU216WMR100,2013-03-10 09:06:00,
2013-03-10 05:11:00,48.2,22.9,29.06,ESE,112,2.5,3.6,37,0.00,,,0.00,WUHU216WMR100,2013-03-10 09:11:00,
2013-03-10 05:16:00,48.0,22.7,29.06,ESE,112,2.7,3.6,37,0.00,,,0.00,WUHU216WMR100,2013-03-10 09:16:00,
2013-03-10 05:21:00,48.2,22.9,29.06,SSE,157,2.7,5.8,37,0.00,,,0.00,WUHU216WMR100,2013-03-10 09:21:00,
2013-03-10 05:26:00,48.4,23.1,29.03,SE,135,2.7,5.8,37,0.00,,,0.00,WUHU216WMR100,2013-03-10 09:26:00,
2013-03-10 05:31:00,48.4,23.1,29.03,SSE,157,2.2,3.4,37,0.00,,,0.00,WUHU216WMR100,2013-03-10 09:31:00,
2013-03-10 05:36:00,48.4,22.4,29.03,SSE,157,2.2,3.4,36,0.00,,,0.00,WUHU216WMR100,2013-03-10 09:36:00,
2013-03-10 05:41:00,48.6,22.6,29.06,ESE,112,2.7,3.8,36,0.00,,,0.00,WUHU216WMR100,2013-03-10 09:41:00,
2013-03-10 05:46:00,48.7,22.7,29.06,SSE,157,2.0,3.8,36,0.00,,,0.00,WUHU216WMR100,2013-03-10 09:46:00,
2013-03-10 05:51:00,48.7,22.7,29.06,SSE,157,2.2,3.4,36,0.00,,,0.00,WUHU216WMR100,2013-03-10 09:51:00,
2013-03-10 05:56:00,48.4,23.1,29.06,East,90,0.0,3.4,37,0.00,,,0.00,WUHU216WMR100,2013-03-10 09:56:00,
2013-03-10 06:01:00,48.2,22.9,29.06,ESE,112,0.0,2.2,37,0.00,,,0.00,WUHU216WMR100,2013-03-10 10:01:00,
2013-03-10 06:06:00,48.0,22.7,29.06,ESE,112,0.0,1.3,37,0.00,,,0.00,WUHU216WMR100,2013-03-10 10:06:00,
2013-03-10 06:11:00,48.0,22.7,29.06,ENE,67,2.2,3.6,37,0.00,,,0.00,WUHU216WMR100,2013-03-10 10:11:00,
2013-03-10 06:16:00,47.8,22.6,29.06,ESE,112,1.3,3.6,37,0.00,,,0.00,WUHU216WMR100,2013-03-10 10:16:00,
2013-03-10 06:21:00,47.5,22.3,29.06,ESE,112,0.0,2.5,37,0.00,,,0.00,WUHU216WMR100,2013-03-10 10:21:00,
2013-03-10 06:26:00,47.5,22.3,29.06,ESE,112,1.3,2.5,37,0.00,,,0.00,WUHU216WMR100,2013-03-10 10:26:00,
2013-03-10 06:31:00,47.7,22.5,29.06,ESE,112,0.9,2.5,37,0.00,,,0.00,WUHU216WMR100,2013-03-10 10:31:00,
2013-03-10 06:36:00,47.3,22.1,29.06,ESE,112,0.0,2.0,37,0.00,,,0.00,WUHU216WMR100,2013-03-10 10:36:00,
2013-03-10 06:41:00,47.3,22.1,29.06,ESE,112,0.0,0.9,37,0.00,,,0.00,WUHU216WMR100,2013-03-10 10:41:00,
2013-03-10 06:46:00,47.3,22.8,29.06,ESE,112,0.9,1.3,38,0.00,,,0.00,WUHU216WMR100,2013-03-10 10:46:00,
2013-03-10 06:51:00,47.1,22.6,29.06,ESE,112,0.0,1.3,38,0.00,,,0.00,WUHU216WMR100,2013-03-10 10:51:00,
2013-03-10 06:56:00,46.9,22.4,29.09,East,90,0.0,0.9,38,0.00,,,0.00,WUHU216WMR100,2013-03-10 10:56:00,
2013-03-10 07:01:00,46.9,22.4,29.09,East,90,0.0,0.0,38,0.00,,,0.00,WUHU216WMR100,2013-03-10 11:01:00,
2013-03-10 07:06:00,46.6,22.1,29.09,East,90,0.0,0.0,38,0.00,,,0.00,WUHU216WMR100,2013-03-10 11:06:00,
2013-03-10 07:11:00,46.6,22.1,29.09,East,90,0.0,0.0,38,0.00,,,0.00,WUHU216WMR100,2013-03-10 11:11:00,
2013-03-10 07:16:00,46.6,22.1,29.09,East,90,0.0,0.0,38,0.00,,,0.00,WUHU216WMR100,2013-03-10 11:16:00,
2013-03-10 07:21:00,46.4,21.9,29.09,East,90,0.0,0.0,38,0.00,,,0.00,WUHU216WMR100,2013-03-10 11:21:00,
2013-03-10 07:26:00,46.4,21.9,29.09,East,90,0.0,0.0,38,0.00,,,0.00,WUHU216WMR100,2013-03-10 11:26:00,
2013-03-10 07:31:00,46.4,21.9,29.09,East,90,0.0,0.0,38,0.00,,,0.00,WUHU216WMR100,2013-03-10 11:31:00,
2013-03-10 07:36:00,46.4,22.6,29.09,East,90,0.0,0.0,39,0.00,,,0.00,WUHU216WMR100,2013-03-10 11:36:00,
2013-03-10 07:41:00,46.2,22.4,29.09,East,90,1.1,2.0,39,0.00,,,0.00,WUHU216WMR100,2013-03-10 11:41:00,
2013-03-10 07:46:00,46.0,22.8,29.09,East,90,1.1,2.0,40,0.00,,,0.00,WUHU216WMR100,2013-03-10 11:46:00,
2013-03-10 07:51:00,45.5,23.0,29.09,East,90,1.1,2.0,41,0.00,,,0.00,WUHU216WMR100,2013-03-10 11:51:00,
2013-03-10 07:56:00,45.3,26.2,29.09,East,90,1.1,2.0,47,0.00,,,0.00,WUHU216WMR100,2013-03-10 11:56:00,
2013-03-10 08:01:00,45.0,27.4,29.09,East,90,1.1,2.0,50,0.00,,,0.00,WUHU216WMR100,2013-03-10 12:01:00,
2013-03-10 08:06:00,45.3,27.2,29.09,East,90,1.1,2.0,49,0.00,,,0.00,WUHU216WMR100,2013-03-10 12:06:00,
2013-03-10 08:11:00,45.7,27.1,29.09,East,90,2.7,2.7,48,0.00,,,0.00,WUHU216WMR100,2013-03-10 12:11:00,
2013-03-10 08:16:00,45.9,26.7,29.09,East,90,1.1,2.7,47,0.00,,,0.00,WUHU216WMR100,2013-03-10 12:16:00,
2013-03-10 08:21:00,46.0,26.8,29.09,East,90,1.1,2.7,47,0.00,,,0.00,WUHU216WMR100,2013-03-10 12:21:00,
2013-03-10 08:26:00,46.2,27.0,29.09,East,90,0.0,1.1,47,0.00,,,0.00,WUHU216WMR100,2013-03-10 12:26:00,
2013-03-10 08:31:00,46.2,27.0,29.09,East,90,0.0,1.1,47,0.00,,,0.00,WUHU216WMR100,2013-03-10 12:31:00,
2013-03-10 08:36:00,46.0,27.8,29.09,East,90,0.0,0.0,49,0.00,,,0.00,WUHU216WMR100,2013-03-10 12:36:00,
2013-03-10 08:41:00,46.0,27.8,29.09,East,90,0.0,0.0,49,0.00,,,0.00,WUHU216WMR100,2013-03-10 12:41:00,
2013-03-10 08:46:00,46.4,28.2,29.09,SSE,157,1.1,1.1,49,0.00,,,0.00,WUHU216WMR100,2013-03-10 12:46:00,
2013-03-10 08:51:00,46.8,29.1,29.09,SE,135,0.9,1.6,50,0.00,,,0.00,WUHU216WMR100,2013-03-10 12:51:00,
2013-03-10 08:56:00,46.9,29.2,29.09,SE,135,0.9,2.0,50,0.00,,,0.00,WUHU216WMR100,2013-03-10 12:56:00,
2013-03-10 09:01:00,47.1,29.4,29.09,ESE,112,1.3,2.0,50,0.00,,,0.00,WUHU216WMR100,2013-03-10 13:01:00,
2013-03-10 09:06:00,47.3,29.6,29.09,East,90,0.0,2.7,50,0.00,,,0.00,WUHU216WMR100,2013-03-10 13:06:00,
2013-03-10 09:11:00,47.7,29.9,29.09,SE,135,0.0,2.7,50,0.00,,,0.00,WUHU216WMR100,2013-03-10 13:11:00,
2013-03-10 09:16:00,48.0,29.7,29.09,SE,135,1.1,2.7,49,0.00,,,0.00,WUHU216WMR100,2013-03-10 13:16:00,
2013-03-10 09:21:00,48.2,29.4,29.09,SSE,157,1.6,2.7,48,0.00,,,0.00,WUHU216WMR100,2013-03-10 13:21:00,
2013-03-10 09:26:00,48.4,29.5,29.09,WSW,247,1.1,2.7,48,0.00,,,0.00,WUHU216WMR100,2013-03-10 13:26:00,
2013-03-10 09:31:00,48.6,29.7,29.09,SE,135,1.1,2.5,48,0.00,,,0.00,WUHU216WMR100,2013-03-10 13:31:00,
2013-03-10 09:36:00,48.7,29.8,29.09,SE,135,0.0,2.7,48,0.00,,,0.00,WUHU216WMR100,2013-03-10 13:36:00,
2013-03-10 09:41:00,48.9,30.0,29.09,SE,135,0.0,2.7,48,0.00,,,0.00,WUHU216WMR100,2013-03-10 13:41:00,
2013-03-10 09:46:00,49.8,30.8,29.09,SE,135,0.0,1.3,48,0.00,,,0.00,WUHU216WMR100,2013-03-10 13:46:00,
2013-03-10 09:51:00,50.4,30.8,29.09,ESE,112,1.6,2.9,47,0.00,,,0.00,WUHU216WMR100,2013-03-10 13:51:00,
2013-03-10 09:56:00,50.4,30.3,29.09,ESE,112,1.6,2.9,46,0.00,,,0.00,WUHU216WMR100,2013-03-10 13:56:00,
2013-03-10 10:01:00,51.1,30.9,29.09,ESE,112,0.0,2.9,46,0.00,,,0.00,WUHU216WMR100,2013-03-10 14:01:00,
2013-03-10 10:06:00,51.4,31.2,29.09,ESE,112,0.0,2.9,46,0.00,,,0.00,WUHU216WMR100,2013-03-10 14:06:00,
2013-03-10 10:11:00,51.4,30.7,29.09,ESE,112,0.0,2.9,45,0.00,,,0.00,WUHU216WMR100,2013-03-10 14:11:00,
2013-03-10 10:16:00,53.2,31.7,29.09,ESE,112,0.9,2.9,44,0.00,,,0.00,WUHU216WMR100,2013-03-10 14:16:00,
2013-03-10 10:21:00,54.5,31.1,29.09,ESE,112,2.5,3.1,41,0.00,,,0.00,WUHU216WMR100,2013-03-10 14:21:00,
2013-03-10 10:26:00,53.8,29.9,29.09,ESE,112,2.5,3.1,40,0.00,,,0.00,WUHU216WMR100,2013-03-10 14:26:00,
2013-03-10 10:31:00,54.9,30.8,29.09,ESE,112,2.2,3.1,40,0.00,,,0.00,WUHU216WMR100,2013-03-10 14:31:00,
2013-03-10 10:36:00,57.4,31.1,29.09,ESE,112,2.9,3.1,37,0.00,,,0.00,WUHU216WMR100,2013-03-10 14:36:00,
2013-03-10 10:41:00,56.8,30.6,29.09,ESE,112,1.3,3.4,37,0.00,,,0.00,WUHU216WMR100,2013-03-10 14:41:00,
2013-03-10 10:46:00,56.7,29.8,29.09,SSE,157,2.5,3.4,36,0.00,,,0.00,WUHU216WMR100,2013-03-10 14:46:00,
2013-03-10 10:51:00,56.8,29.9,29.09,SSE,157,3.4,3.4,36,0.00,,,0.00,WUHU216WMR100,2013-03-10 14:51:00,
2013-03-10 10:56:00,57.0,29.4,29.09,South,180,1.6,3.4,35,0.00,,,0.00,WUHU216WMR100,2013-03-10 14:56:00,
2013-03-10 11:01:00,57.2,28.1,29.09,SSW,202,2.2,3.4,33,0.00,,,0.00,WUHU216WMR100,2013-03-10 15:01:00,
2013-03-10 11:06:00,57.7,27.8,29.09,SSE,157,4.5,6.5,32,0.00,,,0.00,WUHU216WMR100,2013-03-10 15:06:00,
2013-03-10 11:11:00,58.1,26.6,29.09,SSE,157,3.8,6.5,30,0.00,,,0.00,WUHU216WMR100,2013-03-10 15:11:00,
2013-03-10 11:16:00,59.5,27.8,29.09,SSE,157,3.1,6.5,30,0.00,,,0.00,WUHU216WMR100,2013-03-10 15:16:00,
2013-03-10 11:21:00,61.0,27.5,29.09,SSE,157,3.6,4.5,28,0.00,,,0.00,WUHU216WMR100,2013-03-10 15:21:00,
2013-03-10 11:26:00,61.3,25.9,29.09,WSW,247,4.7,7.2,26,0.00,,,0.00,WUHU216WMR100,2013-03-10 15:26:00,
2013-03-10 11:31:00,62.1,26.6,29.09,SSW,202,2.7,7.2,26,0.00,,,0.00,WUHU216WMR100,2013-03-10 15:31:00,
2013-03-10 11:36:00,62.2,26.7,29.09,SSW,202,2.5,7.4,26,0.00,,,0.00,WUHU216WMR100,2013-03-10 15:36:00,
2013-03-10 11:41:00,61.3,25.0,29.09,SSE,157,3.8,7.4,25,0.00,,,0.00,WUHU216WMR100,2013-03-10 15:41:00,
2013-03-10 11:46:00,62.6,26.1,29.09,SSW,202,4.5,4.9,25,0.00,,,0.00,WUHU216WMR100,2013-03-10 15:46:00,
2013-03-10 11:51:00,63.1,26.6,29.09,WSW,247,4.0,7.2,25,0.00,,,0.00,WUHU216WMR100,2013-03-10 15:51:00,
2013-03-10 11:56:00,63.3,25.8,29.09,SSE,157,4.0,7.2,24,0.00,,,0.00,WUHU216WMR100,2013-03-10 15:56:00,
2013-03-10 12:01:00,64.6,26.9,29.09,SSE,157,4.3,7.2,24,0.00,,,0.00,WUHU216WMR100,2013-03-10 16:01:00,
2013-03-10 12:06:00,65.8,27.9,29.09,SSW,202,2.9,6.5,24,0.00,,,0.00,WUHU216WMR100,2013-03-10 16:06:00,
2013-03-10 12:11:00,65.5,26.6,29.09,SSW,202,6.0,7.6,23,0.00,,,0.00,WUHU216WMR100,2013-03-10 16:11:00,
2013-03-10 12:16:00,66.0,27.0,29.09,WSW,247,4.7,7.6,23,0.00,,,0.00,WUHU216WMR100,2013-03-10 16:16:00,
2013-03-10 12:21:00,66.0,27.0,29.09,WSW,247,4.9,10.1,23,0.00,,,0.00,WUHU216WMR100,2013-03-10 16:21:00,
2013-03-10 12:26:00,67.3,28.1,29.06,South,180,4.7,10.1,23,0.00,,,0.00,WUHU216WMR100,2013-03-10 16:26:00,
2013-03-10 12:31:00,67.6,28.4,29.06,SSE,157,6.0,10.1,23,0.00,,,0.00,WUHU216WMR100,2013-03-10 16:31:00,
2013-03-10 12:36:00,67.6,28.4,29.06,SW,225,5.4,6.3,23,0.00,,,0.00,WUHU216WMR100,2013-03-10 16:36:00,
2013-03-10 12:41:00,66.9,27.8,29.06,South,180,4.3,6.0,23,0.00,,,0.00,WUHU216WMR100,2013-03-10 16:41:00,
2013-03-10 12:46:00,68.4,28.0,29.06,SSW,202,1.1,7.6,22,0.00,,,0.00,WUHU216WMR100,2013-03-10 16:46:00,
2013-03-10 12:51:00,68.5,28.1,29.06,SSE,157,3.6,7.6,22,0.00,,,0.00,WUHU216WMR100,2013-03-10 16:51:00,
2013-03-10 12:56:00,69.3,28.7,29.06,SSE,157,4.3,7.6,22,0.00,,,0.00,WUHU216WMR100,2013-03-10 16:56:00,
2013-03-10 13:01:00,70.2,29.5,29.06,SW,225,1.6,7.6,22,0.00,,,0.00,WUHU216WMR100,2013-03-10 17:01:00,
2013-03-10 13:06:00,70.3,29.6,29.06,SSW,202,4.0,7.2,22,0.00,,,0.00,WUHU216WMR100,2013-03-10 17:06:00,
2013-03-10 13:11:00,69.8,29.1,29.06,WSW,247,4.7,10.1,22,0.00,,,0.00,WUHU216WMR100,2013-03-10 17:11:00,
2013-03-10 13:16:00,70.0,29.3,29.06,SSE,157,5.6,10.1,22,0.00,,,0.00,WUHU216WMR100,2013-03-10 17:16:00,
2013-03-10 13:21:00,71.1,30.2,29.06,WNW,292,2.7,8.7,22,0.00,,,0.00,WUHU216WMR100,2013-03-10 17:21:00,
2013-03-10 13:26:00,69.6,26.7,29.06,SSW,202,4.3,8.7,20,0.00,,,0.00,WUHU216WMR100,2013-03-10 17:26:00,
2013-03-10 13:31:00,69.4,28.8,29.06,WSW,247,6.7,10.1,22,0.00,,,0.00,WUHU216WMR100,2013-03-10 17:31:00,
2013-03-10 13:36:00,71.1,30.2,29.06,WSW,247,2.7,10.1,22,0.00,,,0.00,WUHU216WMR100,2013-03-10 17:36:00,
2013-03-10 13:41:00,69.8,25.6,29.06,SSE,157,7.4,10.1,19,0.00,,,0.00,WUHU216WMR100,2013-03-10 17:41:00,
2013-03-10 13:46:00,70.3,29.6,29.06,SSE,157,5.6,7.4,22,0.00,,,0.00,WUHU216WMR100,2013-03-10 17:46:00,
2013-03-10 13:51:00,70.9,30.1,29.06,SSW,202,3.8,7.4,22,0.00,,,0.00,WUHU216WMR100,2013-03-10 17:51:00,
2013-03-10 13:56:00,70.3,29.6,29.03,SSW,202,4.5,8.1,22,0.00,,,0.00,WUHU216WMR100,2013-03-10 17:56:00,
2013-03-10 14:01:00,71.1,30.2,29.03,WSW,247,3.1,8.1,22,0.00,,,0.00,WUHU216WMR100,2013-03-10 18:01:00,
2013-03-10 14:06:00,72.3,27.7,29.03,SSW,202,5.6,7.4,19,0.00,,,0.00,WUHU216WMR100,2013-03-10 18:06:00,
2013-03-10 14:11:00,73.2,28.4,29.03,SSE,157,4.9,7.6,19,0.00,,,0.00,WUHU216WMR100,2013-03-10 18:11:00,
2013-03-10 14:16:00,73.4,27.3,29.03,WSW,247,4.5,7.6,18,0.00,,,0.00,WUHU216WMR100,2013-03-10 18:16:00,
2013-03-10 14:21:00,74.1,27.8,29.03,SW,225,4.5,7.2,18,0.00,,,0.00,WUHU216WMR100,2013-03-10 18:21:00,
2013-03-10 14:26:00,72.9,28.2,29.03,SSE,157,5.8,8.5,19,0.00,,,0.00,WUHU216WMR100,2013-03-10 18:26:00,
2013-03-10 14:31:00,72.5,27.8,29.03,South,180,5.4,8.5,19,0.00,,,0.00,WUHU216WMR100,2013-03-10 18:31:00,
2013-03-10 14:36:00,73.4,27.3,29.03,SSE,157,3.4,10.1,18,0.00,,,0.00,WUHU216WMR100,2013-03-10 18:36:00,
2013-03-10 14:41:00,72.1,27.5,29.00,SSW,202,6.7,10.1,19,0.00,,,0.00,WUHU216WMR100,2013-03-10 18:41:00,
2013-03-10 14:46:00,72.3,27.7,29.00,South,180,3.1,8.5,19,0.00,,,0.00,WUHU216WMR100,2013-03-10 18:46:00,
2013-03-10 14:51:00,71.2,26.8,29.00,SSW,202,4.5,8.7,19,0.00,,,0.00,WUHU216WMR100,2013-03-10 18:51:00,
2013-03-10 14:56:00,72.1,27.5,29.00,WSW,247,4.3,8.7,19,0.00,,,0.00,WUHU216WMR100,2013-03-10 18:56:00,
2013-03-10 15:01:00,70.9,26.5,29.00,South,180,6.7,8.1,19,0.00,,,0.00,WUHU216WMR100,2013-03-10 19:01:00,
2013-03-10 15:06:00,70.7,26.4,29.00,South,180,2.7,7.8,19,0.00,,,0.00,WUHU216WMR100,2013-03-10 19:06:00,
2013-03-10 15:11:00,70.2,26.0,29.00,South,180,2.7,6.7,19,0.00,,,0.00,WUHU216WMR100,2013-03-10 19:11:00,
2013-03-10 15:16:00,70.0,25.8,29.00,WSW,247,4.9,7.6,19,0.00,,,0.00,WUHU216WMR100,2013-03-10 19:16:00,
2013-03-10 15:21:00,69.6,26.7,29.00,SSE,157,3.1,7.8,20,0.00,,,0.00,WUHU216WMR100,2013-03-10 19:21:00,
2013-03-10 15:26:00,69.6,26.7,29.00,SSW,202,6.7,7.8,20,0.00,,,0.00,WUHU216WMR100,2013-03-10 19:26:00,
2013-03-10 15:31:00,69.8,25.6,29.00,SSW,202,5.4,6.7,19,0.00,,,0.00,WUHU216WMR100,2013-03-10 19:31:00,
2013-03-10 15:36:00,70.3,26.0,29.00,SSW,202,3.1,6.7,19,0.00,,,0.00,WUHU216WMR100,2013-03-10 19:36:00,
2013-03-10 15:41:00,70.0,25.8,29.00,South,180,3.8,6.3,19,0.00,,,0.00,WUHU216WMR100,2013-03-10 19:41:00,
2013-03-10 15:46:00,70.7,29.9,29.00,SSW,202,4.5,5.4,22,0.00,,,0.00,WUHU216WMR100,2013-03-10 19:46:00,
2013-03-10 15:52:00,71.4,26.9,28.97,South,180,4.0,7.8,19,0.00,,,0.00,WUHU216WMR100,2013-03-10 19:52:00,
2013-03-10 15:57:00,71.2,26.8,28.97,WSW,247,6.9,8.7,19,0.00,,,0.00,WUHU216WMR100,2013-03-10 19:57:00,
2013-03-10 16:02:00,71.8,27.3,28.97,WSW,247,5.4,8.7,19,0.00,,,0.00,WUHU216WMR100,2013-03-10 20:02:00,
2013-03-10 16:07:00,72.0,27.4,28.97,SW,225,4.3,8.1,19,0.00,,,0.00,WUHU216WMR100,2013-03-10 20:07:00,
2013-03-10 16:12:00,71.8,27.3,28.97,WSW,247,3.6,6.3,19,0.00,,,0.00,WUHU216WMR100,2013-03-10 20:12:00,
2013-03-10 16:17:00,72.1,27.5,28.97,WSW,247,3.8,6.3,19,0.00,,,0.00,WUHU216WMR100,2013-03-10 20:17:00,
2013-03-10 16:22:00,73.0,28.3,28.97,WSW,247,4.9,5.8,19,0.00,,,0.00,WUHU216WMR100,2013-03-10 20:22:00,
2013-03-10 16:27:00,72.9,28.2,28.97,WSW,247,6.0,9.8,19,0.00,,,0.00,WUHU216WMR100,2013-03-10 20:27:00,
2013-03-10 16:32:00,73.4,27.3,28.97,SW,225,3.1,9.8,18,0.00,,,0.00,WUHU216WMR100,2013-03-10 20:32:00,
2013-03-10 16:37:00,74.1,27.8,28.97,SW,225,2.7,8.1,18,0.00,,,0.00,WUHU216WMR100,2013-03-10 20:37:00,
2013-03-10 16:42:00,74.1,27.8,28.97,SSW,202,2.2,7.6,18,0.00,,,0.00,WUHU216WMR100,2013-03-10 20:42:00,
2013-03-10 16:47:00,74.1,27.8,28.97,South,180,3.6,7.6,18,0.00,,,0.00,WUHU216WMR100,2013-03-10 20:47:00,
2013-03-10 16:52:00,73.8,27.6,29.00,SSE,157,2.9,5.6,18,0.00,,,0.00,WUHU216WMR100,2013-03-10 20:52:00,
2013-03-10 16:57:00,73.8,27.6,29.00,WSW,247,2.2,5.6,18,0.00,,,0.00,WUHU216WMR100,2013-03-10 20:57:00,
2013-03-10 17:02:00,73.2,28.4,29.00,WSW,247,4.5,5.4,19,0.00,,,0.00,WUHU216WMR100,2013-03-10 21:02:00,
2013-03-10 17:07:00,73.0,28.3,29.00,SSE,157,5.6,7.4,19,0.00,,,0.00,WUHU216WMR100,2013-03-10 21:07:00,
2013-03-10 17:12:00,72.9,28.2,29.00,SW,225,6.5,9.8,19,0.00,,,0.00,WUHU216WMR100,2013-03-10 21:12:00,
2013-03-10 17:17:00,73.9,27.7,29.00,SW,225,2.2,9.8,18,0.00,,,0.00,WUHU216WMR100,2013-03-10 21:17:00,
2013-03-10 17:22:00,72.7,28.0,29.00,WSW,247,4.3,4.3,19,0.00,,,0.00,WUHU216WMR100,2013-03-10 21:22:00,
2013-03-10 17:27:00,72.0,27.4,29.00,SSW,202,5.8,8.7,19,0.00,,,0.00,WUHU216WMR100,2013-03-10 21:27:00,
2013-03-10 17:32:00,72.0,27.4,29.00,WSW,247,4.5,8.7,19,0.00,,,0.00,WUHU216WMR100,2013-03-10 21:32:00,
2013-03-10 17:37:00,72.5,27.8,28.97,SSE,157,3.4,5.8,19,0.00,,,0.00,WUHU216WMR100,2013-03-10 21:37:00,
2013-03-10 17:42:00,72.7,28.0,28.97,SSW,202,2.2,5.8,19,0.00,,,0.00,WUHU216WMR100,2013-03-10 21:42:00,
2013-03-10 17:47:00,72.0,27.4,28.97,SSW,202,4.5,4.7,19,0.00,,,0.00,WUHU216WMR100,2013-03-10 21:47:00,
2013-03-10 17:52:00,70.9,26.5,28.97,SE,135,2.2,4.7,19,0.00,,,0.00,WUHU216WMR100,2013-03-10 21:52:00,
2013-03-10 17:57:00,70.5,26.2,28.97,South,180,1.1,4.5,19,0.00,,,0.00,WUHU216WMR100,2013-03-10 21:57:00,
2013-03-10 18:02:00,70.9,26.5,28.97,SSW,202,2.7,4.0,19,0.00,,,0.00,WUHU216WMR100,2013-03-10 22:02:00,
2013-03-10 18:07:00,71.4,26.9,28.94,SSE,157,2.7,4.9,19,0.00,,,0.00,WUHU216WMR100,2013-03-10 22:07:00,
2013-03-10 18:12:00,71.1,26.7,28.94,SSE,157,3.4,4.9,19,0.00,,,0.00,WUHU216WMR100,2013-03-10 22:12:00,
2013-03-10 18:17:00,70.9,26.5,28.94,SSE,157,4.0,4.3,19,0.00,,,0.00,WUHU216WMR100,2013-03-10 22:17:00,
2013-03-10 18:22:00,70.9,26.5,28.94,SSW,202,3.1,6.3,19,0.00,,,0.00,WUHU216WMR100,2013-03-10 22:22:00,
2013-03-10 18:27:00,70.9,26.5,28.94,SSE,157,3.6,6.3,19,0.00,,,0.00,WUHU216WMR100,2013-03-10 22:27:00,
2013-03-10 18:32:00,70.9,26.5,28.94,SSE,157,4.0,5.6,19,0.00,,,0.00,WUHU216WMR100,2013-03-10 22:32:00,
2013-03-10 18:37:00,70.2,26.0,28.97,South,180,2.9,5.6,19,0.00,,,0.00,WUHU216WMR100,2013-03-10 22:37:00,
2013-03-10 18:42:00,69.8,25.6,28.97,SSW,202,3.6,4.9,19,0.00,,,0.00,WUHU216WMR100,2013-03-10 22:42:00,
2013-03-10 18:47:00,69.3,26.4,28.97,SSW,202,2.9,4.7,20,0.00,,,0.00,WUHU216WMR100,2013-03-10 22:47:00,
2013-03-10 18:52:00,68.7,25.9,28.97,WSW,247,2.9,3.8,20,0.00,,,0.00,WUHU216WMR100,2013-03-10 22:52:00,
2013-03-10 18:57:00,68.4,25.7,28.97,SSW,202,3.1,3.6,20,0.00,,,0.00,WUHU216WMR100,2013-03-10 22:57:00,
2013-03-10 19:02:00,68.0,25.4,28.97,SSW,202,2.5,3.4,20,0.00,,,0.00,WUHU216WMR100,2013-03-10 23:02:00,
2013-03-10 19:08:00,67.8,25.2,28.97,South,180,2.7,3.1,20,0.00,,,0.00,WUHU216WMR100,2013-03-10 23:08:00,
2013-03-10 19:13:00,67.5,24.9,28.97,South,180,0.0,2.7,20,0.00,,,0.00,WUHU216WMR100,2013-03-10 23:13:00,
2013-03-10 19:18:00,67.3,24.8,28.97,South,180,2.5,2.7,20,0.00,,,0.00,WUHU216WMR100,2013-03-10 23:18:00,
2013-03-10 19:23:00,66.9,24.5,28.97,South,180,2.5,2.5,20,0.00,,,0.00,WUHU216WMR100,2013-03-10 23:23:00,
2013-03-10 19:28:00,66.6,24.2,28.97,South,180,2.5,2.5,20,0.00,,,0.00,WUHU216WMR100,2013-03-10 23:28:00,
2013-03-10 19:33:00,66.6,24.2,28.97,South,180,2.5,2.5,20,0.00,,,0.00,WUHU216WMR100,2013-03-10 23:33:00,
2013-03-10 19:38:00,66.2,23.9,28.97,South,180,2.5,2.5,20,0.00,,,0.00,WUHU216WMR100,2013-03-10 23:38:00,
2013-03-10 19:43:00,66.0,23.7,28.97,South,180,2.5,2.5,20,0.00,,,0.00,WUHU216WMR100,2013-03-10 23:43:00,
2013-03-10 19:48:00,65.7,23.5,28.97,South,180,2.5,2.5,20,0.00,,,0.00,WUHU216WMR100,2013-03-10 23:48:00,
2013-03-10 19:53:00,65.3,23.1,28.94,South,180,2.5,2.5,20,0.00,,,0.00,WUHU216WMR100,2013-03-10 23:53:00,
2013-03-10 19:58:00,64.8,22.7,28.94,South,180,2.5,2.5,20,0.00,,,0.00,WUHU216WMR100,2013-03-10 23:58:00,
2013-03-10 20:03:00,64.4,22.4,28.94,South,180,2.5,2.5,20,0.00,,,0.00,WUHU216WMR100,2013-03-11 00:03:00,
2013-03-10 20:08:00,64.2,25.5,28.94,South,180,2.5,2.5,23,0.00,,,0.00,WUHU216WMR100,2013-03-11 00:08:00,
2013-03-10 20:13:00,64.0,25.3,28.94,South,180,2.5,2.5,23,0.00,,,0.00,WUHU216WMR100,2013-03-11 00:13:00,
2013-03-10 20:18:00,63.5,24.9,28.94,South,180,2.5,2.5,23,0.00,,,0.00,WUHU216WMR100,2013-03-11 00:18:00,
2013-03-10 20:23:00,63.0,24.5,28.94,South,180,2.5,2.5,23,0.00,,,0.00,WUHU216WMR100,2013-03-11 00:23:00,
2013-03-10 20:28:00,62.2,24.8,28.94,South,180,2.5,2.5,24,0.00,,,0.00,WUHU216WMR100,2013-03-11 00:28:00,
2013-03-10 20:33:00,61.5,24.2,28.94,South,180,2.5,2.5,24,0.00,,,0.00,WUHU216WMR100,2013-03-11 00:33:00,
2013-03-10 20:38:00,60.8,23.6,28.94,ESE,112,0.0,2.5,24,0.00,,,0.00,WUHU216WMR100,2013-03-11 00:38:00,
2013-03-10 20:43:00,60.4,23.3,28.94,ESE,112,0.0,2.5,24,0.00,,,0.00,WUHU216WMR100,2013-03-11 00:43:00,
2013-03-10 20:48:00,60.1,23.0,28.94,ESE,112,0.0,0.0,24,0.00,,,0.00,WUHU216WMR100,2013-03-11 00:48:00,
2013-03-10 20:53:00,60.4,23.3,28.94,ESE,112,1.1,1.6,24,0.00,,,0.00,WUHU216WMR100,2013-03-11 00:53:00,
2013-03-10 20:58:00,60.4,24.3,28.94,ESE,112,0.0,1.6,25,0.00,,,0.00,WUHU216WMR100,2013-03-11 00:58:00,
2013-03-10 21:03:00,60.6,24.4,28.94,ESE,112,0.0,1.3,25,0.00,,,0.00,WUHU216WMR100,2013-03-11 01:03:00,
2013-03-10 21:08:00,60.4,24.3,28.94,SE,135,0.0,0.0,25,0.00,,,0.00,WUHU216WMR100,2013-03-11 01:08:00,
2013-03-10 21:13:00,60.4,24.3,28.94,SE,135,0.0,0.0,25,0.00,,,0.00,WUHU216WMR100,2013-03-11 01:13:00,
2013-03-10 21:18:00,60.3,24.2,28.94,SE,135,0.0,0.0,25,0.00,,,0.00,WUHU216WMR100,2013-03-11 01:18:00,
2013-03-10 21:23:00,59.4,23.4,28.94,SE,135,0.0,0.0,25,0.00,,,0.00,WUHU216WMR100,2013-03-11 01:23:00,
2013-03-10 21:28:00,58.8,23.8,28.94,SE,135,0.0,0.0,26,0.00,,,0.00,WUHU216WMR100,2013-03-11 01:28:00,
2013-03-10 21:33:00,58.5,23.6,28.94,SE,135,0.0,0.0,26,0.00,,,0.00,WUHU216WMR100,2013-03-11 01:33:00,
2013-03-10 21:38:00,58.3,23.4,28.94,SE,135,0.0,0.0,26,0.00,,,0.00,WUHU216WMR100,2013-03-11 01:38:00,
2013-03-10 21:43:00,58.3,23.4,28.94,SE,135,0.0,0.0,26,0.00,,,0.00,WUHU216WMR100,2013-03-11 01:43:00,
2013-03-10 21:48:00,57.9,23.0,28.94,SE,135,0.0,0.0,26,0.00,,,0.00,WUHU216WMR100,2013-03-11 01:48:00,
2013-03-10 21:53:00,57.9,23.0,28.94,SE,135,0.0,0.0,26,0.00,,,0.00,WUHU216WMR100,2013-03-11 01:53:00,
2013-03-10 21:58:00,57.6,23.7,28.94,SE,135,0.0,0.0,27,0.00,,,0.00,WUHU216WMR100,2013-03-11 01:58:00,
2013-03-10 22:03:00,57.0,24.0,28.94,WSW,247,0.0,0.0,28,0.00,,,0.00,WUHU216WMR100,2013-03-11 02:03:00,
2013-03-10 22:08:00,57.6,25.4,28.94,WSW,247,0.0,0.0,29,0.00,,,0.00,WUHU216WMR100,2013-03-11 02:08:00,
2013-03-10 22:13:00,57.4,25.2,28.94,ENE,67,0.0,1.1,29,0.00,,,0.00,WUHU216WMR100,2013-03-11 02:13:00,
2013-03-10 22:18:00,57.6,25.4,28.94,ENE,67,1.3,1.3,29,0.00,,,0.00,WUHU216WMR100,2013-03-11 02:18:00,
2013-03-10 22:23:00,57.4,26.0,28.94,ENE,67,1.3,1.3,30,0.00,,,0.00,WUHU216WMR100,2013-03-11 02:23:00,
2013-03-10 22:28:00,57.6,26.2,28.94,ENE,67,0.0,1.3,30,0.00,,,0.00,WUHU216WMR100,2013-03-11 02:28:00,
2013-03-10 22:33:00,58.1,27.4,28.94,SE,135,2.7,3.1,31,0.00,,,0.00,WUHU216WMR100,2013-03-11 02:33:00,
2013-03-10 22:38:00,58.8,27.2,28.94,SE,135,2.7,3.1,30,0.00,,,0.00,WUHU216WMR100,2013-03-11 02:38:00,
2013-03-10 22:43:00,59.4,26.9,28.94,SE,135,2.7,3.1,29,0.00,,,0.00,WUHU216WMR100,2013-03-11 02:43:00,
2013-03-10 22:48:00,60.1,26.7,28.94,SE,135,2.7,3.1,28,0.00,,,0.00,WUHU216WMR100,2013-03-11 02:48:00,
2013-03-10 22:53:00,60.6,26.2,28.94,SE,135,2.7,3.1,27,0.00,,,0.00,WUHU216WMR100,2013-03-11 02:53:00,
2013-03-10 22:58:00,61.0,25.7,28.94,SE,135,2.7,3.1,26,0.00,,,0.00,WUHU216WMR100,2013-03-11 02:58:00,
2013-03-10 23:03:00,61.0,25.7,28.94,SE,135,2.7,3.1,26,0.00,,,0.00,WUHU216WMR100,2013-03-11 03:03:00,
2013-03-10 23:08:00,61.2,25.9,28.91,SSE,157,3.4,3.6,26,0.00,,,0.00,WUHU216WMR100,2013-03-11 03:08:00,
2013-03-10 23:13:00,61.2,25.9,28.91,SSE,157,3.4,3.6,26,0.00,,,0.00,WUHU216WMR100,2013-03-11 03:13:00,
2013-03-10 23:18:00,61.0,25.7,28.91,SSE,157,3.4,3.6,26,0.00,,,0.00,WUHU216WMR100,2013-03-11 03:18:00,
2013-03-10 23:23:00,60.6,25.3,28.91,SSE,157,3.4,3.6,26,0.00,,,0.00,WUHU216WMR100,2013-03-11 03:23:00,
2013-03-10 23:28:00,61.0,25.7,28.91,SSE,157,3.4,3.6,26,0.00,,,0.00,WUHU216WMR100,2013-03-11 03:28:00,
2013-03-10 23:33:00,60.6,25.3,28.91,SSE,157,3.4,3.6,26,0.00,,,0.00,WUHU216WMR100,2013-03-11 03:33:00,
2013-03-10 23:38:00,60.6,25.3,28.91,SSE,157,3.4,3.6,26,0.00,,,0.00,WUHU216WMR100,2013-03-11 03:38:00,
2013-03-10 23:43:00,60.4,25.2,28.91,SSE,157,3.4,3.6,26,0.00,,,0.00,WUHU216WMR100,2013-03-11 03:43:00,
2013-03-10 23:48:00,60.3,25.1,28.91,SSE,157,3.4,3.6,26,0.00,,,0.00,WUHU216WMR100,2013-03-11 03:48:00,
2013-03-10 23:53:00,60.4,25.2,28.91,SSE,157,3.4,3.6,26,0.00,,,0.00,WUHU216WMR100,2013-03-11 03:53:00,
2013-03-10 23:58:00,60.6,25.3,28.91,SSE,157,3.8,3.8,26,0.00,,,0.00,WUHU216WMR100,2013-03-11 03:58:00,